Location: Cahas Mountain Overlook
(37.0833°N, 80.1000°W)
Time: 08:31:28
(UTC-04:00)

Tiros 1 - Pass Details

Date: 15 February 2026
Orbit: 618 x 650 km, 48.4° (Epoch: 14 March)

Event Time Altitude Azimuth Distance (km) Brightness Sun altitude
Rises 15:36:32 0° 305° (NW) 2,885 10.7 24.6°
Reaches altitude 10° 15:38:51 10° 307° (NW) 1,977 9.9 24.2°
Maximum altitude 15:43:23 77° 33° (NNE) 635 7.4 23.5°
Drops below altitude 10° 15:47:56 10° 121° (ESE) 1,975 9.5 22.8°
Sets 15:50:14 0° 122° (ESE) 2,882 10.3 22.4°
